User: anonymous   Login
Location: Cisewo
(53.3833°N, 14.9000°E)
Time: 12:47:40
(UTC+00:00)
Language:

BEESAT 3 - Orbit

View from above orbital plane
View from above orbital plane
View from above satellite
View from above satellite

Ground track
Ground track

The orbit data is extracted from the following two-line orbital elements,

1 39134U 13015E   21263.01175911  .00002862  00000-0  12912-3 0  9995
2 39134  64.8626 224.8489 0018081 316.2621  43.7075 15.23089657465995
Epoch (UTC): 20 September 2021 00:16:55
Eccentricity: 0.0018081
inclination: 64.8626°
perigee height: 484 km
apogee height: 509 km
right ascension of ascending node: 224.8489°
argument of perigee: 316.2621°
revolutions per day: 15.23089657
mean anomaly at epoch: 43.7075°
orbit number at epoch: 46599

The dashed part of the orbit path shows where the satellite is in the earth's shadow,  

DLR